Weather in Leutkirch im Allgäu

Germany     47°49′38″N   10°01′19″E
temp.,
°C
wind,
m/s
gust,
m/s
humid.,
%
clouds,
%
prec.,
mm/h
press.,
hPa
HPBL,
m
17 april, sat
sat1723:00−2ene311865 0.0 1024354
02:00−4ene25965 0.0 1024104
05:00−5e22975 0.0 102336
08:00−1ene24836 0.0 1023181
11:00+6ne455291 0.0 10201261
14:00+8nne5545100 0.0 10181814
17:00+7nne5557100 0.0 10181359
20:00+4ne377493 0.1 1019388
18 april, sun
sun1823:00+2ne2796100 0.1 1020379
02:00+2ne2597100 0.2 1020444
05:00+1ne2499100 0.0 1020265
08:00+2nne2399100 0.1 1020211
11:00+2ne2498100 0.3 1021355
14:00+4nne2286100 0.3 1020704
17:00+6n1275100 0.2 1019780
20:00+4nne0095100 0.8 102015
19 april, mon
mon1923:00+3ene119599 0.6 102114
02:00+3sw1198100 0.8 1020123
05:00+2sw0199100 0.3 102080
08:00+2wsw0199100 0.8 1020439
11:00+3wsw0198100 0.8 1019401
14:00+4n1192100 0.8 1018359
17:00+8nnw116485 0.1 1016980
20:00+4ne1179100 0.2 101612
20 april, tue
tue2023:00+2e118983 0.0 101712
02:00+1se119059 0.0 101713
05:000se119224 0.0 101710
08:00+2se11805 0.0 101669
11:00+10nne125226 0.0 10141249
14:00+12nnw224196 0.1 10112267
17:00+11n325315 0.2 10111355
20:00+5ene22865 0.2 101218
21 april, wed
wed2123:00+2ese21952 0.0 101413
02:00+1sse11940 0.0 101410
05:000s11944 0.0 101410
08:00+4ssw12815 0.0 101393
11:00+11wsw34495 0.0 1011918
14:00+14w46395 0.0 10081931
17:00+14wsw453991 0.0 10072042
20:00+7wsw2793100 1.1 1009213